SALSAT

Last updated on Thu Oct 30 2025 00:03:10 GMT+0000 (Coordinated Universal Time)

1 46495U 20068K 25302.52600889 .00011623 00000+0 46472-3 0 9992 2 46495 97.8764 287.4572 0012133 38.4470 321.7628 15.25215119280148
UTC large
Height (km)
Speed (km/s)
/
Latitude / Longitude
Inclination (degrees)
Orbital Period (minutes)
Azimuth
Elevation
Range (km)
Doppler Factor

Next 0 passes for location: London (51.5072 / 0.1276)

Sorry there are no passes over London.